Location: North Mitre
(40.7833°S, 175.4667°E)
Time: 04:26:21
(UTC+00:00)

Cosmos 1680 Rocket - Visible Passes

Search period start: 10 November 2024 00:00
Search period end: 20 November 2024 00:00
Orbit: 757 x 778 km, 74.1° (Epoch: 09 November)

Date Brightness Start Highest point End Pass type
(mag) Time Alt. Az. Time Alt. Az. Time Alt. Az.
10 Nov 4.8 11:50:57 34° SE 11:50:57 34° SE 11:54:11 10° SSE visible
10 Nov 5.3 13:31:11 21° WSW 13:31:26 21° WSW 13:35:25 10° S visible
11 Nov 5.3 11:14:08 22° ESE 11:14:08 22° ESE 11:16:31 10° SE visible
11 Nov 4.7 12:54:21 33° SW 12:54:21 33° SW 12:58:43 10° S visible
12 Nov 5.7 10:37:16 13° ESE 10:37:16 13° ESE 10:38:20 10° SE visible
12 Nov 4.3 12:17:29 49° SSW 12:17:29 49° SSW 12:21:45 10° SSE visible
13 Nov 4.2 11:40:35 51° SSE 11:40:35 51° SSE 11:44:33 10° SSE visible
13 Nov 5.8 13:20:48 13° WSW 13:22:00 14° SW 13:24:38 10° SSW visible
14 Nov 4.5 11:03:38 36° ESE 11:03:38 36° ESE 11:07:08 10° SSE visible
14 Nov 5.3 12:43:52 22° WSW 12:44:22 22° WSW 12:48:27 10° S visible
15 Nov 5.1 10:26:40 23° ESE 10:26:40 23° ESE 10:29:25 10° SE visible
15 Nov 4.7 12:06:53 35° WSW 12:06:53 35° WSW 12:11:43 10° S visible
16 Nov 5.5 09:49:39 14° ESE 09:49:39 14° ESE 09:51:08 10° ESE visible
16 Nov 3.9 11:29:51 58° SW 11:29:51 58° SW 11:34:42 10° SSE visible
17 Nov 3.6 10:52:46 69° SE 10:52:46 69° SE 10:57:29 10° SSE visible
17 Nov 5.9 12:32:59 12° WSW 12:34:54 14° SW 12:37:43 10° SSW visible
18 Nov 4.0 10:15:38 44° E 10:15:38 44° E 10:20:02 10° SSE visible
18 Nov 5.3 11:55:51 21° W 11:57:15 23° WSW 12:01:26 10° S visible
19 Nov 4.7 09:38:26 26° E 09:38:26 26° E 09:42:17 10° SE visible
19 Nov 4.7 11:18:37 33° W 11:19:44 37° WSW 11:24:40 10° S visible
